1998-067ID

Last updated on May 18, 2016, 5:36 p.m. UTC

1 41483U 98067ID  16139.39627961  .00071550  00000-0  10344-2 0  9995
2 41483  51.6413 206.6439 0001956   3.6692  97.9120 15.55267331    16

Satellite is not in orbit.